Retour au catalogue

COSMOS 2535 DEB

ActifSSO
NORAD 44632·DEBRIS·🇷🇺 Russia

Lancé Jul 10, 2019 depuis Plesetsk Cosmodrome

Loading…

Prochains Passages (prochaines 24 heures)

TLE

FraisSource: Space-Track

Époque: Sep 14, 2026, 20:35 UTC

1 44632U 19039J   26257.85791742  .00008060  00000-0  41569-3 0  9998
2 44632  97.5081 296.3504 0012377  74.0842 286.1754 15.16549812378592

Suivez COSMOS 2535 DEB en temps réel avec AllMySat

Download on the App Store